Theta_e
317 317 317 317 317 317 317 317 315 313 313 314 315 315 316 316 317 316 315 316 316 316 316 316 316 317 317 315 315 317 317 318 322 324 323 321 318 320 324 331 338 341 345 352 354 354 354 354 354 354 356 358 359 359 359 359 359 357 363 356 345 351 353 357 363 358 359 362 361 363 363 363 363 361 360 360 361 362 360 359 360 361 361 359 358 356 354 351
317 317 317 316 317 317 317 316 313 312 313 313 314 315 315 316 315 315 314 315 316 316 316 316 316 316 316 315 316 317 317 320 325 325 322 320 316 316 320 327 337 343 345 352 354 352 352 352 354 355 356 358 358 359 360 360 359 360 362 354 348 356 357 359 362 359 361 361 361 363 363 363 362 361 360 363 364 363 362 362 361 362 362 360 358 355 353 350
317 316 316 316 317 316 316 316 312 312 314 314 315 316 316 316 315 314 312 313 315 316 316 316 316 316 315 315 317 316 318 324 326 324 323 318 316 314 316 324 335 342 346 351 352 352 352 352 355 355 356 359 357 358 360 360 360 360 360 354 353 358 359 360 360 361 361 360 363 363 363 364 361 360 361 363 363 362 363 362 361 363 361 359 357 355 353 350
317 316 315 316 316 316 316 315 312 312 314 314 315 316 316 316 316 314 311 312 314 315 316 316 316 316 315 316 317 316 321 328 324 325 326 318 317 315 314 321 333 342 346 348 348 350 351 353 355 355 358 360 357 358 360 359 359 360 359 354 354 358 359 360 359 360 360 360 363 363 363 365 361 360 361 363 362 362 363 361 361 360 359 357 356 353 352 351
316 316 315 315 315 316 316 314 312 312 314 314 314 316 317 317 316 313 312 313 314 314 315 316 316 315 316 316 318 321 325 325 322 329 327 320 317 315 313 319 332 344 346 346 347 349 353 355 355 355 358 359 358 359 358 357 358 360 359 355 356 357 357 358 359 360 359 359 362 363 366 365 362 362 362 362 361 362 360 359 360 358 357 357 354 352 352 352
316 316 315 315 315 315 315 313 312 313 314 314 314 316 316 317 317 313 312 314 315 314 314 315 315 315 316 316 319 324 327 321 324 329 326 320 315 316 313 317 334 347 347 345 347 350 354 355 355 357 358 358 358 358 356 354 357 360 358 355 356 357 358 357 359 361 359 359 363 365 366 363 363 363 363 361 360 360 358 357 359 358 357 356 354 353 351 351
315 315 315 315 315 314 314 313 312 314 315 314 314 315 316 317 316 313 313 314 314 314 315 315 315 317 318 319 322 325 325 322 329 330 325 318 317 316 311 321 341 349 347 346 348 350 352 354 356 357 358 359 357 356 356 353 355 361 359 355 353 355 359 357 358 360 358 359 363 363 363 364 366 365 362 362 362 360 359 358 359 360 359 356 354 351 350 351
314 315 315 315 315 314 313 313 313 315 315 314 314 315 315 317 316 313 313 314 314 314 315 315 316 318 318 322 327 326 321 325 333 332 323 318 317 313 317 337 350 350 347 347 349 351 350 354 356 355 358 359 354 355 355 353 358 361 358 352 350 352 355 355 356 358 358 360 361 361 364 366 366 365 363 364 363 360 360 359 360 360 358 356 354 351 351 351
313 314 314 315 314 314 313 313 314 315 315 314 314 314 315 317 316 313 312 313 314 315 315 316 317 318 319 324 328 322 323 329 333 331 322 320 318 317 334 351 352 348 347 346 350 353 352 353 353 353 356 354 352 353 352 353 357 355 350 348 348 351 352 354 357 359 360 361 361 363 365 365 363 364 365 365 363 360 360 360 360 359 357 356 355 353 352 350
313 313 314 314 314 313 313 313 315 316 315 314 314 314 316 318 316 312 312 313 314 315 315 316 317 318 323 327 326 320 326 333 336 333 329 330 328 333 347 352 349 348 345 344 349 353 352 351 349 349 349 351 351 350 350 351 350 347 345 346 348 351 353 356 360 362 362 362 363 364 365 364 361 364 366 364 362 360 361 361 359 359 358 357 355 354 355 353
313 313 313 313 313 312 312 314 315 316 315 315 314 314 316 318 315 312 313 313 313 315 315 316 318 321 326 327 324 323 327 333 338 336 336 340 342 347 352 350 347 345 342 343 347 352 352 349 345 345 347 349 348 349 349 347 345 343 344 347 349 353 356 358 364 363 364 365 362 364 366 364 361 364 368 363 360 360 361 363 360 359 358 357 356 354 356 355
312 312 312 312 312 312 313 314 315 316 316 315 314 315 317 318 315 312 313 313 313 315 315 317 318 321 326 325 322 323 325 332 337 338 342 346 350 354 353 348 345 342 341 342 344 348 351 347 342 341 344 344 344 348 347 343 342 342 344 349 353 358 359 361 364 363 366 367 361 365 364 363 367 366 367 362 359 361 361 361 360 360 360 357 356 354 354 356
312 311 312 312 312 311 313 314 314 316 316 315 315 316 318 317 314 312 313 313 313 315 317 318 318 321 326 323 322 322 325 334 335 339 345 346 349 353 352 348 344 341 338 338 340 341 341 342 339 337 337 335 340 344 342 342 341 343 347 350 352 352 356 362 362 362 368 365 362 364 353 355 370 367 363 361 359 362 361 360 360 360 361 358 357 355 354 356
311 311 311 311 311 311 313 314 314 315 316 315 315 316 318 317 314 313 314 314 314 316 318 319 321 323 327 320 324 323 327 334 331 334 338 338 342 346 348 346 343 340 334 331 331 331 332 334 332 333 334 334 338 341 342 343 342 346 348 349 348 338 343 359 359 361 369 361 362 366 348 351 371 366 361 361 360 363 360 360 361 359 360 359 358 357 355 356
311 311 310 310 310 311 312 314 314 315 316 315 316 318 318 315 314 315 315 314 315 317 319 321 323 326 326 319 328 325 327 333 330 329 330 331 333 337 342 340 338 337 333 329 327 328 329 328 329 334 336 337 339 341 345 346 345 349 340 336 341 333 339 358 356 354 361 359 364 364 347 351 370 366 361 361 359 362 360 359 360 359 361 360 358 358 355 356
311 310 309 310 310 311 312 314 315 315 316 316 316 317 316 314 315 316 316 315 316 318 321 327 326 327 326 322 330 330 331 334 331 328 328 328 328 330 335 334 332 331 330 329 326 326 325 326 330 334 338 340 341 341 343 339 338 347 339 328 332 331 335 348 353 353 353 357 365 362 350 354 369 365 361 362 360 362 361 360 360 360 361 360 359 359 357 358
309 309 309 309 310 311 312 314 315 316 316 316 317 317 316 316 317 317 316 316 318 320 322 327 325 326 327 324 327 330 331 332 331 329 326 326 326 328 330 329 329 327 327 327 325 324 323 325 330 335 339 339 340 341 336 328 327 337 339 331 332 335 331 334 346 352 349 353 361 363 358 358 366 364 361 362 361 362 362 361 361 360 360 360 359 358 357 358
308 309 309 309 311 311 313 314 315 316 316 317 317 316 318 319 318 319 319 319 320 321 322 323 323 324 323 323 326 328 329 329 332 331 325 324 326 326 326 326 327 325 323 323 322 323 324 327 334 340 341 339 340 340 331 328 330 330 331 329 330 333 331 330 337 342 343 346 352 360 361 360 366 364 361 362 361 361 363 361 360 361 360 360 360 357 356 357
309 310 309 310 311 312 314 314 315 316 316 317 318 317 319 320 319 322 323 322 323 325 325 323 323 322 321 324 327 327 328 330 332 330 326 325 325 325 325 324 324 322 320 321 323 325 329 333 336 336 337 338 341 340 336 336 338 334 333 333 328 327 330 334 335 337 339 343 348 354 354 358 366 365 362 361 362 362 362 362 361 362 361 361 360 357 356 356
310 310 309 310 312 313 314 315 316 316 316 318 319 321 325 326 328 329 326 324 324 325 324 321 323 323 323 325 326 327 329 329 330 329 326 325 325 324 324 323 322 320 320 325 328 329 333 336 334 334 337 340 339 339 341 340 339 340 337 335 331 326 328 336 337 338 342 339 343 352 351 356 364 364 364 361 362 363 361 363 363 362 361 360 360 357 356 356
310 310 310 311 312 314 315 315 316 316 316 317 318 323 327 327 329 327 325 326 325 325 324 322 323 324 324 326 326 328 328 328 329 329 327 325 325 324 323 323 320 320 323 328 332 334 337 335 334 338 340 340 338 338 339 339 339 339 335 331 328 327 329 335 338 341 344 338 341 353 352 357 366 364 363 361 362 363 361 363 362 361 361 360 359 357 357 356
310 310 310 311 314 315 315 316 316 316 316 317 318 323 324 324 324 323 324 326 325 325 324 324 324 324 325 326 327 327 327 328 328 328 328 325 323 322 323 323 320 321 325 329 333 335 335 335 336 340 339 337 336 337 336 337 338 335 334 328 323 328 330 333 341 344 343 337 338 348 347 355 369 364 362 362 362 363 360 362 361 360 362 360 359 358 357 355
310 311 310 312 315 315 316 316 316 316 317 319 322 324 323 322 322 322 323 326 326 325 324 324 324 324 326 326 327 327 326 328 328 327 327 323 320 322 324 323 321 324 328 330 334 331 329 333 339 339 336 335 335 335 334 333 335 334 332 324 321 328 327 324 334 341 339 335 340 349 348 359 371 364 363 361 360 364 362 361 360 358 359 359 358 358 357 357
310 310 311 313 315 315 317 315 315 317 318 320 322 323 323 322 323 323 324 327 327 326 325 325 326 325 327 327 327 327 326 327 327 327 325 321 320 322 323 323 323 326 329 332 335 333 331 334 336 335 333 335 333 334 335 331 329 332 332 326 322 328 326 324 331 336 336 339 352 350 334 343 366 365 365 363 360 365 364 362 361 358 358 358 357 356 357 358
310 310 311 313 315 317 315 314 318 320 319 321 322 323 323 322 324 323 325 328 325 325 327 326 327 327 327 327 327 327 327 326 327 327 325 321 320 323 324 325 325 325 328 333 335 336 337 336 334 334 335 335 334 333 334 329 325 327 331 330 327 329 330 330 333 333 328 330 348 345 321 326 355 364 365 365 361 364 364 363 362 358 358 357 358 358 356 357
309 310 311 312 315 316 315 319 323 319 320 324 325 323 321 323 323 322 328 327 321 323 328 327 328 328 327 328 328 327 326 327 328 328 326 322 323 326 327 326 325 326 331 334 335 334 336 337 336 335 336 335 334 332 331 330 323 320 326 330 329 330 330 330 331 328 321 323 341 345 324 321 337 355 366 366 364 365 363 364 363 360 358 356 357 357 355 356
309 310 311 311 314 314 317 323 321 318 322 325 324 322 322 323 322 324 327 319 316 324 327 326 328 327 327 328 328 327 325 327 328 328 326 323 326 329 327 326 325 326 334 333 327 329 334 336 334 335 336 334 331 329 330 330 323 320 327 330 329 330 330 331 331 326 325 328 333 342 335 321 323 345 367 364 364 367 364 364 363 361 360 356 356 356 355 356
310 310 310 311 313 313 316 318 318 321 323 323 322 321 323 323 322 327 326 314 316 327 327 326 326 324 325 328 328 328 327 327 327 327 327 325 328 329 326 330 326 324 333 329 320 326 333 332 332 333 332 331 330 329 330 330 325 325 330 330 329 330 331 334 332 326 329 327 320 327 335 323 319 339 365 366 362 366 366 365 363 360 360 357 355 355 354 355
311 310 310 311 313 314 314 313 317 322 321 321 322 321 323 323 324 330 326 318 321 326 324 325 325 324 326 328 328 328 327 328 328 328 328 327 330 330 327 331 329 327 331 328 323 328 331 329 329 330 330 329 330 330 330 329 329 329 329 329 331 331 333 336 333 326 326 323 316 320 328 322 318 328 349 358 355 358 365 365 362 361 359 357 355 354 354 355
311 311 311 310 313 315 314 314 317 318 319 321 321 322 323 324 327 326 320 319 324 324 323 324 324 326 327 328 329 328 327 329 329 328 327 328 329 330 329 331 331 331 332 329 327 328 329 328 328 328 329 329 329 330 329 328 330 329 329 330 329 331 335 336 332 326 321 318 318 320 325 324 319 321 334 347 347 348 356 361 362 362 360 359 357 353 353 354
311 312 311 310 314 315 318 321 319 318 319 320 321 323 325 327 330 323 317 321 323 322 324 325 324 327 327 328 330 328 327 328 329 327 327 329 330 329 330 330 330 330 329 328 327 327 328 327 327 328 328 328 329 328 329 330 329 328 330 329 323 323 327 324 323 324 319 317 319 322 327 325 318 320 332 343 346 347 351 355 360 362 362 361 359 356 354 353
312 313 312 312 313 314 318 322 321 319 319 320 323 326 327 328 327 320 319 321 320 320 325 325 324 326 328 328 330 329 327 328 328 328 328 328 330 330 329 329 329 324 319 320 322 324 325 326 327 328 328 329 328 327 328 329 329 329 327 323 316 315 318 317 317 319 318 317 321 326 328 323 320 326 337 344 346 347 349 351 355 359 362 362 360 358 356 355
314 315 315 315 315 314 316 319 320 320 319 322 326 328 329 325 321 319 319 319 319 321 325 325 323 327 328 326 327 328 327 327 329 329 329 329 330 331 330 331 331 325 320 319 317 315 317 323 327 327 327 328 327 325 322 322 326 328 323 317 314 314 316 317 317 318 318 317 321 328 328 321 320 330 341 345 345 348 350 351 354 357 360 362 361 359 357 357
316 317 316 316 316 316 316 317 318 318 320 325 328 329 329 322 320 320 320 321 321 322 324 325 323 325 327 325 326 327 325 325 328 329 330 330 329 329 330 331 330 330 327 321 316 313 311 316 323 325 326 327 328 328 325 325 327 327 328 324 316 314 315 316 317 318 318 317 319 325 326 319 318 329 341 344 344 348 348 349 354 357 359 361 361 360 359 358
318 318 317 317 318 318 317 317 318 318 321 328 329 329 326 320 320 322 321 322 323 323 324 324 323 322 323 325 325 326 325 323 326 329 329 329 327 327 330 331 330 331 328 319 317 317 312 314 324 327 327 328 328 329 330 328 324 326 331 325 316 317 318 315 316 318 318 317 318 319 321 323 327 335 342 342 343 346 348 350 354 356 358 360 361 362 361 358
320 321 320 321 321 321 319 318 319 319 323 329 328 327 326 324 326 327 325 325 324 324 323 322 322 319 317 322 325 326 325 324 326 327 327 328 328 328 330 331 330 331 328 322 319 317 312 315 326 328 326 328 328 328 330 326 322 325 323 318 321 329 324 315 315 320 318 318 319 317 318 323 328 334 340 343 343 344 347 349 352 355 358 360 362 362 361 359
324 325 327 327 325 324 322 319 320 321 325 329 328 327 329 330 331 331 330 329 325 324 323 318 319 319 315 317 322 325 325 323 325 325 323 325 326 326 329 329 329 330 329 326 323 321 316 315 324 329 325 327 327 326 329 328 326 324 318 320 327 330 327 321 318 320 320 318 319 316 316 318 318 324 336 342 342 342 346 349 353 356 358 359 360 361 362 361
326 330 330 327 325 325 323 319 321 325 327 329 330 331 332 331 331 329 330 330 326 325 323 318 319 321 319 317 320 325 325 321 323 324 322 323 323 326 329 328 328 330 329 328 325 326 322 314 320 330 327 326 328 326 324 326 329 326 323 328 327 320 320 321 319 320 321 319 319 316 316 317 315 320 330 335 339 342 346 349 351 352 354 356 357 360 362 362
327 332 330 326 324 324 322 321 324 328 328 329 331 331 331 330 330 329 329 330 329 326 323 322 323 323 323 321 321 325 324 321 323 323 320 322 323 325 329 328 328 329 328 329 328 328 326 316 315 325 329 326 327 324 318 320 328 328 328 330 328 323 321 321 321 320 319 319 319 317 316 317 319 326 332 336 340 342 344 347 348 349 351 353 354 357 361 362
331 331 327 324 323 323 322 323 327 328 328 330 331 330 329 329 329 329 329 330 331 328 326 326 324 323 324 325 325 325 325 324 325 323 321 324 323 325 328 328 329 329 328 329 329 327 328 321 313 321 328 323 321 323 321 321 324 324 321 321 322 323 324 325 323 320 319 319 319 320 318 316 324 336 339 339 342 342 344 346 346 347 348 351 355 357 360 363
332 329 327 324 323 322 323 326 328 328 329 330 330 330 330 330 330 331 329 329 330 329 328 327 326 325 325 325 324 325 326 325 325 324 324 324 323 323 326 328 328 329 328 329 330 327 326 323 315 315 319 317 319 327 328 326 327 326 322 320 321 322 321 321 321 320 319 318 318 319 317 317 327 341 342 340 343 344 345 345 346 347 348 351 354 357 361 363
332 331 329 324 322 323 326 328 328 329 329 331 331 331 331 331 331 331 330 330 330 330 329 328 327 326 326 326 325 326 326 324 324 324 324 324 325 324 325 328 328 328 328 328 329 328 328 326 318 314 317 321 325 330 328 327 329 328 327 327 327 326 320 316 316 318 318 318 318 318 315 320 334 343 342 342 345 346 345 346 347 349 350 353 355 358 363 364
333 331 327 324 323 325 328 330 331 331 331 332 332 331 330 331 331 330 330 329 330 331 330 329 328 326 326 326 326 326 325 323 324 325 325 325 327 325 325 326 327 328 328 327 327 328 328 326 318 315 320 325 327 329 329 329 329 326 326 330 329 326 324 322 322 322 319 317 318 317 316 320 332 345 346 344 347 348 347 347 348 349 351 355 359 364 368 366
331 329 327 325 324 325 329 332 333 334 334 333 333 332 331 330 330 331 330 329 329 331 331 330 329 327 327 326 326 327 325 322 323 325 326 327 326 327 326 325 327 329 327 327 329 327 324 323 320 315 316 319 320 323 324 325 327 325 327 331 330 329 330 328 325 325 320 316 317 317 314 318 333 348 347 346 348 350 348 347 348 349 351 355 362 367 369 368
331 331 329 327 325 326 328 330 331 333 334 335 335 334 331 331 330 330 330 329 328 329 330 330 328 328 327 326 326 327 326 325 325 325 326 327 328 329 326 324 326 327 327 333 335 327 324 326 323 316 314 315 315 316 317 320 324 325 328 331 330 330 329 325 321 318 317 318 319 317 314 320 337 348 345 346 349 348 350 349 348 351 353 358 364 366 367 368
332 333 332 329 327 327 328 328 329 331 334 337 337 334 332 332 330 328 329 330 329 329 330 329 327 327 326 326 326 327 327 327 328 327 328 329 329 329 326 324 325 327 334 339 335 328 328 329 327 320 317 317 316 319 325 326 322 320 324 328 330 331 330 326 318 314 316 318 319 322 322 322 333 344 346 346 347 347 350 349 349 351 353 357 363 365 366 368
332 334 333 333 332 330 331 331 331 332 334 335 336 335 333 333 331 330 330 330 330 331 331 329 328 328 327 328 328 328 329 330 330 330 330 330 329 329 326 324 323 328 337 337 330 329 328 323 325 326 322 322 324 326 329 329 323 321 324 328 331 334 333 325 317 318 323 317 314 328 334 324 329 345 348 346 349 348 349 348 349 352 353 356 361 364 366 367
333 333 331 332 334 335 335 334 333 334 333 334 335 334 333 333 333 332 332 331 331 331 331 331 330 329 330 330 330 329 331 331 330 331 332 330 329 329 327 327 327 330 334 331 326 332 327 319 323 326 323 326 329 328 328 329 329 329 330 330 332 334 331 324 321 326 329 318 316 331 335 328 336 348 349 350 351 347 348 350 350 351 355 359 361 361 363 365
332 332 330 330 332 335 335 333 334 334 333 335 335 334 334 334 333 332 332 332 332 332 332 332 331 330 331 332 332 333 332 328 326 331 334 332 331 330 328 329 331 333 335 330 328 331 326 322 328 328 322 324 328 329 330 329 329 330 332 333 334 335 334 330 327 330 330 324 326 334 336 338 346 350 350 353 350 347 348 349 349 351 354 359 361 360 361 364
331 331 332 331 332 334 334 334 334 334 333 335 336 334 333 334 333 331 331 332 333 333 332 332 332 331 331 332 332 334 333 330 330 332 333 332 332 332 330 329 329 331 331 329 330 330 325 325 334 330 319 319 326 329 329 330 329 328 330 336 338 334 335 336 335 334 332 328 329 331 334 342 350 352 353 353 350 350 349 347 350 351 352 356 359 358 360 362
327 327 328 333 335 334 334 334 333 333 334 334 334 334 333 332 332 331 330 330 331 332 332 332 333 332 332 333 332 331 331 331 332 331 331 331 330 330 331 330 329 330 329 329 331 331 327 326 331 327 316 315 323 326 326 328 329 324 325 335 339 335 333 338 341 341 336 330 327 329 331 341 351 353 353 352 350 351 352 350 352 353 352 353 355 356 357 357
324 325 325 331 335 334 333 333 333 333 334 333 332 333 332 331 331 331 332 331 329 330 331 331 333 332 332 333 331 330 329 329 330 330 329 329 328 328 329 328 329 330 330 330 330 331 331 326 324 322 314 313 321 325 324 324 321 318 323 335 342 341 340 343 345 346 345 339 334 332 337 347 354 353 350 351 353 356 358 357 356 357 357 356 357 356 356 357
Wind_Speed
14 14 15 15 15 16 16 16 17 19 19 18 18 19 19 18 17 17 16 15 14 14 12 12 11 10 8 6 5 5 5 5 5 7 10 10 13 10 9 13 12 20 24 16 13 11 9 6 4 4 4 3 2 1 2 2 2 3 3 2 5 6 7 6 8 7 4 5 5 2 1 1 3 3 3 3 3 5 6 4 4 3 4 10 15 19 21 22
14 14 15 15 15 16 16 16 17 19 19 19 19 20 20 19 18 17 17 15 14 13 12 11 10 9 7 6 6 5 6 5 7 12 14 13 13 14 12 14 15 19 22 16 14 13 9 6 5 4 4 2 0 1 2 1 2 3 3 3 6 7 6 4 6 4 4 5 4 2 2 1 3 5 3 4 5 6 5 4 4 5 8 12 16 19 21 22
14 15 15 15 15 16 16 16 17 18 19 20 20 20 20 20 19 17 17 16 14 13 12 11 10 8 6 5 6 6 7 7 9 7 7 11 13 15 15 15 16 19 19 15 13 11 6 5 6 4 4 2 1 1 3 1 1 2 2 3 7 7 5 4 4 2 2 2 2 3 3 3 4 5 4 4 5 6 5 5 5 7 10 13 16 19 20 21
15 15 15 15 16 16 16 17 17 18 19 20 20 20 20 20 19 17 17 16 14 12 12 11 9 6 5 5 5 6 6 7 4 3 2 8 15 17 17 16 17 19 16 11 10 9 5 5 6 4 4 1 1 3 3 1 2 2 2 4 7 7 5 5 4 1 0 1 1 3 4 5 6 5 4 5 5 5 5 6 7 7 12 14 15 18 20 20
15 15 15 16 16 16 17 17 17 18 19 19 20 20 20 20 18 16 16 15 13 12 12 10 7 5 4 4 4 5 5 5 3 5 3 8 18 19 19 17 18 19 14 9 10 9 6 6 5 5 4 1 0 2 2 2 3 3 2 4 6 6 6 6 4 1 2 2 2 3 4 6 8 6 6 7 5 4 4 6 7 7 11 15 15 17 18 18
15 15 16 16 16 17 17 18 17 18 19 19 19 20 21 21 17 15 15 13 11 10 11 9 5 4 3 3 3 2 6 1 5 4 4 8 19 20 19 18 18 18 13 11 11 10 8 6 6 4 2 1 2 2 3 3 2 3 1 3 7 7 7 8 4 2 4 4 4 3 3 7 9 7 7 8 5 2 4 7 7 7 11 14 16 16 16 16
15 15 16 16 17 17 18 18 17 18 19 18 19 20 21 21 17 15 14 13 10 9 10 7 4 4 4 3 1 3 7 2 6 6 4 9 19 19 19 18 19 17 13 13 12 10 8 7 6 2 2 1 3 4 5 6 4 4 4 6 9 8 8 9 5 3 4 4 3 3 4 7 7 6 8 10 6 3 6 8 7 9 12 14 16 15 14 15
15 16 16 17 17 18 18 18 18 18 18 18 19 20 20 20 16 14 14 12 10 8 8 5 4 5 5 1 3 5 6 3 8 8 2 12 18 19 20 19 19 16 14 13 11 10 8 6 4 1 2 1 3 4 7 7 4 3 7 9 10 10 9 8 6 4 5 4 3 4 5 6 3 4 6 9 7 6 8 10 9 10 13 13 14 14 14 14
16 16 16 17 17 18 18 18 18 18 18 18 19 19 20 20 15 12 13 12 10 7 5 3 4 5 5 1 6 5 2 7 8 5 4 15 18 20 21 18 18 16 14 12 10 9 6 4 2 1 4 3 4 5 7 7 0 2 10 11 11 11 9 7 5 4 5 3 4 6 5 4 3 3 4 7 8 8 10 11 12 12 13 13 12 13 13 13
16 16 17 17 17 18 18 18 18 17 17 18 19 19 21 19 13 11 12 11 9 6 3 2 4 5 2 4 7 4 5 8 6 2 9 15 18 22 18 16 18 16 13 10 10 9 4 1 1 2 4 3 4 6 7 6 4 8 12 12 12 9 6 4 2 2 5 3 5 6 4 4 4 2 2 7 10 10 11 13 13 13 14 13 12 12 12 13
16 16 17 17 18 18 17 18 18 17 17 18 19 19 21 18 11 9 10 9 8 4 2 3 5 4 3 6 7 1 7 7 2 7 12 16 19 19 14 14 17 14 11 8 8 8 4 1 4 4 3 2 6 8 6 5 8 11 12 11 7 2 2 2 3 4 4 4 5 5 4 5 5 2 2 8 11 11 12 13 13 13 13 13 13 12 11 12
16 17 17 18 18 17 17 18 17 16 17 18 19 20 21 16 9 7 8 7 6 3 3 4 5 4 4 7 4 3 7 6 3 10 13 15 15 13 10 13 13 10 8 7 6 5 4 3 5 6 4 5 7 6 4 7 12 12 9 8 2 6 2 4 5 5 3 3 5 5 3 5 6 3 5 9 11 11 13 13 13 13 12 12 12 11 10 11
17 17 18 18 18 17 17 17 17 17 17 18 19 20 20 13 6 5 6 5 3 2 3 3 3 2 5 4 2 4 5 3 6 12 13 12 12 9 9 11 9 6 4 3 3 2 5 6 7 8 7 7 7 5 8 11 12 9 5 6 3 6 3 5 4 5 3 3 6 5 1 3 6 6 7 9 11 11 12 12 13 11 10 12 12 11 10 11
17 17 18 18 18 17 17 17 17 17 17 19 19 20 17 8 3 4 4 3 2 2 2 3 3 1 6 1 5 3 2 5 9 12 12 12 11 9 9 9 7 6 3 2 2 1 3 5 7 8 7 6 6 8 11 9 7 5 3 4 3 2 3 5 4 5 2 3 7 5 0 2 6 7 7 8 11 12 11 12 12 11 11 11 11 11 10 11
17 18 18 18 18 17 17 17 17 17 18 19 19 18 11 2 1 2 3 1 1 2 3 3 2 3 5 3 4 2 4 7 9 11 11 12 11 10 10 8 7 6 4 2 1 1 1 3 6 7 5 5 7 9 8 5 3 3 2 2 1 1 4 6 4 2 1 4 8 5 1 3 6 8 8 8 10 11 10 11 12 12 12 11 11 11 10 11
18 19 19 19 18 17 17 16 16 17 18 18 17 13 4 1 1 1 2 0 2 2 2 1 1 4 5 3 5 3 4 6 8 11 10 9 9 9 11 9 7 6 5 4 3 3 3 4 5 6 6 6 6 6 6 4 4 1 3 1 2 3 2 4 4 2 2 4 8 6 3 2 5 8 8 9 10 11 9 10 12 12 12 12 11 10 9 10
19 19 19 18 17 17 16 16 16 17 18 17 13 7 1 1 1 1 1 1 2 1 0 3 3 5 3 4 4 5 6 5 7 10 9 7 6 9 11 9 7 7 6 5 4 5 5 4 4 4 5 5 4 5 5 3 3 2 4 3 3 5 4 1 4 3 1 2 5 7 5 2 6 9 8 9 10 11 10 10 12 11 11 12 10 10 10 10
19 18 18 18 17 17 16 16 16 16 17 14 8 3 1 1 1 1 0 2 1 1 3 3 3 4 2 5 4 5 7 7 8 10 9 7 7 9 9 6 6 8 7 6 6 6 6 5 4 3 4 5 3 4 4 1 3 5 5 5 4 5 4 3 3 2 1 4 3 5 5 1 6 9 8 10 11 11 10 9 11 11 11 11 10 10 10 10
19 18 18 18 17 16 15 16 16 16 16 10 4 2 0 2 1 2 4 4 4 3 1 3 4 2 3 7 5 7 7 9 10 9 10 9 9 9 6 5 7 9 7 6 7 7 5 4 4 5 5 3 1 3 4 5 6 7 7 6 7 6 4 4 5 4 4 5 3 3 4 2 6 8 8 10 11 11 10 9 9 10 11 11 10 11 11 11
19 19 19 18 17 16 15 16 15 15 14 7 2 2 2 3 3 4 5 7 7 5 3 2 4 2 3 7 6 8 9 8 7 8 11 10 10 10 7 7 8 7 7 6 6 7 6 5 6 6 3 1 2 3 6 6 6 8 7 7 7 6 4 4 4 3 4 6 2 1 5 3 4 8 9 9 11 11 11 11 10 10 11 11 12 12 12 12
19 19 19 18 17 15 14 15 14 14 12 4 1 4 3 3 2 1 1 6 6 5 5 3 3 4 1 2 4 7 7 5 5 8 10 9 10 10 8 8 8 7 8 6 4 5 5 7 6 3 2 2 3 5 6 7 7 8 7 6 6 5 3 3 3 2 2 5 2 2 6 3 4 7 8 9 11 11 11 11 11 12 12 11 13 14 13 11
19 19 18 18 17 15 15 15 14 14 8 1 3 7 3 5 2 3 4 4 4 4 5 4 4 5 3 2 3 3 4 7 9 9 9 9 11 9 7 9 9 8 8 7 4 5 6 9 5 1 2 3 5 6 6 8 8 7 5 5 5 2 3 0 2 0 2 4 3 5 7 0 5 5 7 8 9 9 10 11 10 12 12 12 13 14 13 12
19 19 18 18 17 15 15 14 14 11 3 4 6 6 2 2 2 3 5 5 2 5 5 5 6 5 5 4 5 6 7 9 9 9 10 10 9 6 7 9 9 7 8 10 8 5 6 5 2 3 1 5 6 5 6 7 6 6 5 5 3 3 5 1 3 2 5 4 4 8 7 2 5 4 5 7 8 7 9 10 10 10 11 12 13 13 13 13
19 19 18 17 17 16 14 14 11 5 3 5 9 7 2 3 4 5 5 5 1 4 3 4 4 5 5 3 8 11 7 6 7 10 12 11 7 5 7 8 8 8 8 10 11 8 4 4 4 2 2 4 6 5 6 6 5 5 5 5 5 5 7 5 3 6 6 3 3 7 7 3 5 5 5 6 7 8 9 10 11 10 11 12 13 14 14 14
19 18 17 17 18 14 13 11 5 3 3 6 8 7 4 5 5 5 5 4 3 4 3 4 3 4 4 5 9 10 5 5 5 10 14 12 8 5 5 5 6 8 8 9 9 9 5 4 4 4 3 4 6 5 4 4 4 5 2 2 6 7 7 7 6 6 4 3 2 4 6 1 5 5 5 6 7 8 9 10 11 11 11 12 12 13 14 15
20 19 17 17 18 14 9 4 3 3 5 4 3 5 4 7 4 5 4 4 4 5 5 6 4 5 7 7 9 7 7 6 4 10 14 11 8 3 4 5 4 6 5 7 6 6 6 4 5 7 6 6 7 6 3 3 6 3 4 4 6 7 7 7 6 5 3 2 1 2 6 2 3 4 4 7 8 9 10 11 12 11 11 12 12 12 13 14
20 19 17 16 16 13 6 1 1 4 4 3 4 4 5 6 3 6 4 4 5 5 5 4 2 5 6 8 10 6 5 8 7 10 12 10 9 4 5 6 4 4 3 5 5 4 6 7 7 9 8 7 7 4 2 2 7 2 5 5 7 7 8 7 6 5 2 4 3 3 4 5 1 4 4 6 7 8 10 12 12 12 12 13 13 13 13 14
20 18 17 15 15 11 6 4 4 4 2 3 4 5 7 3 6 4 5 4 4 3 4 4 2 2 3 7 9 3 5 9 7 9 11 11 9 5 6 5 6 6 5 6 5 4 5 8 9 9 9 7 5 2 0 4 7 3 5 7 8 8 8 7 6 4 2 4 4 2 1 5 2 5 5 5 6 8 10 13 14 13 14 14 14 15 15 15
20 17 16 15 14 9 7 8 7 5 3 3 3 6 4 6 6 4 5 2 3 2 2 4 4 5 6 8 8 3 5 5 2 7 11 10 7 5 4 2 4 5 5 8 8 1 3 4 4 5 7 5 3 3 4 6 6 5 8 10 9 8 7 5 6 4 2 4 4 1 2 5 2 3 5 4 4 4 6 10 13 14 15 14 14 15 16 15
19 17 15 13 9 5 5 8 9 7 5 4 3 4 4 7 4 6 4 2 4 4 3 3 5 8 10 10 8 5 5 4 4 9 11 8 9 6 2 0 3 4 5 7 9 6 4 4 3 5 6 6 6 7 7 7 8 8 10 10 8 7 5 4 4 3 4 5 2 1 2 5 3 1 2 2 1 1 1 4 9 14 15 15 14 14 15 15
19 16 13 9 5 4 5 4 5 7 6 2 3 2 6 5 4 6 3 2 3 5 6 6 6 9 12 10 8 6 5 5 7 10 9 7 9 7 3 4 4 5 5 6 8 9 9 8 6 6 7 7 8 8 8 8 8 7 7 6 6 5 4 5 5 4 5 4 1 1 2 4 3 1 3 3 3 1 1 2 5 12 15 14 13 13 14 15
18 14 11 10 10 10 8 3 3 7 5 2 2 5 5 4 5 3 3 3 3 6 8 8 8 10 12 9 7 8 7 5 8 10 9 8 8 7 7 6 4 6 6 5 6 7 9 10 8 8 8 8 9 7 6 7 6 5 6 5 5 5 4 5 5 4 5 3 1 1 1 3 2 2 4 4 4 3 2 2 2 8 13 14 14 13 13 13
14 11 10 12 13 14 11 6 5 6 2 3 5 6 5 5 3 2 5 5 3 5 6 8 9 10 11 8 6 9 7 5 8 9 9 9 7 8 9 6 4 5 3 3 5 5 7 9 10 10 8 9 10 7 5 6 6 7 6 4 4 4 4 5 4 3 4 3 2 1 2 3 2 2 3 5 6 4 3 2 2 4 9 13 14 13 13 13
8 6 6 8 11 12 10 8 9 7 4 5 6 5 6 4 2 3 5 4 4 5 6 9 11 10 11 8 7 9 6 4 8 8 7 9 7 7 9 7 7 7 3 3 3 4 6 6 11 12 6 9 13 10 7 4 3 5 2 4 5 4 4 4 3 3 3 2 2 2 2 3 0 3 3 4 5 4 3 3 4 4 6 10 12 12 13 13
1 1 2 3 4 7 9 9 9 6 4 6 6 5 5 2 4 3 4 6 6 6 8 10 10 9 9 6 7 9 6 2 8 8 6 8 6 6 7 8 11 9 6 4 1 3 5 1 9 11 5 7 11 9 6 7 5 3 1 5 5 3 3 4 3 3 4 3 2 3 2 1 1 2 2 1 3 4 3 4 5 6 6 8 10 11 12 12
7 7 5 2 1 2 7 10 8 5 5 6 6 4 2 1 2 1 3 5 5 7 10 11 9 8 9 6 7 10 6 3 8 8 6 7 7 7 7 6 11 12 8 4 1 3 5 2 10 10 6 7 7 4 5 7 4 1 4 6 1 3 6 6 2 2 5 5 2 2 2 1 2 2 3 3 4 5 4 4 5 6 7 8 8 9 11 11
6 5 6 4 1 1 5 10 9 5 5 6 5 2 1 1 2 3 3 2 3 7 10 9 7 7 8 7 7 10 8 5 7 7 5 6 5 7 9 7 8 13 12 8 3 1 4 3 9 9 8 8 4 5 7 8 5 3 4 1 2 1 5 5 3 3 5 5 3 2 1 1 2 3 4 3 3 5 5 4 5 5 7 7 7 8 9 11
4 4 6 6 4 2 5 10 9 6 6 5 5 4 2 1 2 2 1 0 2 7 9 6 5 7 7 7 7 10 10 7 8 7 5 5 4 5 9 9 9 13 14 11 6 1 3 4 7 7 6 7 5 6 8 8 7 8 6 4 2 4 3 3 3 4 4 4 3 4 1 1 1 3 3 2 3 5 6 4 4 4 5 5 5 7 9 9
5 5 4 8 7 3 9 9 6 6 6 5 4 3 1 1 1 2 2 3 3 7 7 4 5 5 6 6 7 10 10 7 7 6 5 4 3 4 7 8 9 12 13 12 8 2 2 5 4 7 5 4 6 7 8 8 8 7 6 4 4 3 2 3 3 4 4 3 2 3 2 1 2 3 1 2 4 5 6 5 3 3 3 3 4 6 8 8
6 3 3 6 5 8 7 4 5 6 5 4 3 1 1 3 3 3 3 5 5 5 5 3 6 6 6 6 6 8 9 8 6 5 4 3 3 4 7 7 8 11 13 13 9 4 3 5 2 8 7 5 5 6 5 4 5 6 7 7 6 4 3 3 3 3 4 3 2 2 2 2 3 4 1 3 4 4 6 6 4 4 3 4 4 5 6 7
6 1 4 4 5 6 2 4 5 4 4 4 4 3 3 4 4 3 3 6 7 5 4 4 4 6 6 6 6 7 7 7 7 5 3 4 4 2 5 6 7 10 11 11 9 6 4 4 3 5 7 6 5 3 1 3 4 5 6 6 6 5 3 3 4 3 2 4 3 1 3 2 4 3 1 4 4 4 6 6 5 5 5 4 4 4 5 5
5 1 5 6 3 2 4 5 3 3 4 3 3 4 4 3 4 3 3 6 7 6 4 4 5 5 6 6 5 6 7 7 7 6 4 4 3 0 5 6 7 11 10 7 7 7 4 4 4 4 5 3 2 2 2 4 6 6 5 4 5 4 4 5 4 3 3 5 4 3 3 2 3 3 1 4 5 5 7 6 6 6 5 4 3 4 4 3
2 3 5 7 1 3 6 5 2 3 3 2 4 5 5 4 3 2 2 5 6 5 5 5 5 6 6 5 4 6 8 5 5 6 4 3 3 2 5 7 8 11 10 6 6 6 3 3 5 4 5 3 2 4 2 3 6 6 4 4 4 4 5 5 4 2 3 5 4 3 3 2 3 0 1 4 5 6 6 6 7 6 5 5 5 4 3 2
1 3 4 7 4 4 5 3 1 2 1 3 4 3 4 4 4 3 2 4 5 5 6 6 5 5 4 5 5 6 6 4 4 5 3 2 2 4 3 8 9 10 9 5 5 7 4 4 4 4 5 5 5 5 5 4 5 4 2 3 3 4 5 5 4 4 4 4 4 4 4 3 4 2 3 5 6 6 6 7 7 6 5 5 5 4 3 2
1 2 3 6 7 6 4 3 3 3 3 4 3 1 2 4 3 3 1 2 3 5 5 4 4 4 4 6 5 5 6 3 2 4 3 2 4 4 2 9 11 11 6 1 1 6 5 3 3 4 5 5 4 3 2 1 3 1 1 2 3 4 6 5 4 5 5 3 3 5 4 3 5 2 4 6 7 6 6 7 7 7 6 6 5 4 3 2
2 2 2 5 7 5 4 2 4 4 4 5 2 3 2 3 5 2 2 2 3 3 3 3 5 5 6 7 6 6 7 4 1 4 2 0 3 3 1 8 12 8 4 3 3 6 4 4 4 4 4 2 2 1 1 2 3 2 2 3 3 4 5 4 5 4 2 2 3 4 4 1 3 5 6 6 6 6 6 7 8 7 6 6 5 4 3 2
2 1 0 2 3 3 4 3 2 3 3 4 2 4 5 3 6 4 2 2 3 2 3 4 5 6 7 9 7 6 6 5 4 5 3 3 4 6 6 7 10 5 4 2 8 6 3 4 5 5 6 3 3 4 3 3 4 3 4 3 2 3 5 6 6 1 1 5 3 2 4 5 6 7 6 7 6 6 7 8 7 7 6 5 4 4 3 3
2 1 2 2 1 1 1 1 3 3 3 3 3 4 5 5 5 4 3 2 2 0 0 4 5 4 6 7 6 6 6 6 7 5 3 4 5 7 8 7 7 7 6 6 7 4 4 3 2 4 7 6 6 7 5 4 4 3 4 3 2 3 4 7 7 4 4 5 1 1 6 8 5 3 5 7 5 7 8 7 6 6 6 5 4 4 4 3
1 0 1 1 2 2 3 3 5 4 3 3 2 4 7 8 8 6 4 2 3 4 3 5 7 5 5 4 3 6 5 4 6 5 3 3 4 4 6 6 6 8 8 7 6 3 4 2 2 5 7 6 5 5 5 6 5 3 3 4 3 3 2 4 6 5 5 5 1 0 4 8 6 2 5 6 5 7 7 6 7 7 7 7 6 6 6 4
2 2 2 2 2 2 3 3 4 3 1 2 2 4 6 8 9 8 6 5 5 6 6 7 9 7 6 6 6 7 7 6 6 5 4 3 3 3 3 4 3 6 7 5 5 4 3 2 2 5 6 6 5 3 4 7 6 5 3 3 5 5 2 1 3 2 3 5 5 4 4 7 6 3 5 5 5 6 6 7 9 8 9 9 8 8 7 5
5 2 3 4 2 1 2 2 3 2 1 2 3 5 6 7 8 6 6 8 8 7 7 7 7 7 8 10 10 9 8 7 5 5 5 4 4 3 3 3 3 1 5 3 3 5 4 2 2 4 6 5 5 5 6 7 8 9 4 3 6 7 2 3 2 1 2 3 6 6 4 5 5 4 6 6 6 8 8 9 9 8 10 10 10 10 9 8
7 2 3 4 2 0 1 1 2 2 1 3 4 5 5 5 6 4 3 6 8 8 7 6 4 3 6 9 10 8 7 6 5 5 4 3 2 2 2 2 3 2 1 1 2 2 3 4 3 3 6 4 5 5 7 7 9 9 2 3 3 4 1 5 5 5 3 2 4 6 3 4 4 4 5 7 7 8 9 9 8 9 10 10 11 11 11 10
Wind_Direction
352 350 348 347 346 345 345 344 346 347 346 345 344 344 343 340 339 339 337 336 335 333 331 331 330 330 340 356 358 357 345 328 299 253 237 233 214 207 191 187 182 165 168 174 169 166 174 182 193 240 267 266 257 345 338 306 293 275 271 10 47 41 42 25 18 32 32 46 46 66 116 110 127 151 144 158 162 129 140 142 119 119 96 105 116 125 137 146
350 348 347 347 345 344 343 343 346 346 346 346 344 343 344 341 338 337 336 335 333 333 331 329 328 332 345 357 358 360 349 320 278 260 243 237 217 211 200 185 185 172 172 178 176 179 185 175 182 228 260 266 267 335 322 319 277 292 315 24 53 30 34 26 13 28 14 47 71 72 112 115 131 155 184 181 151 142 148 138 140 132 117 120 126 133 144 150
348 346 346 345 344 343 341 342 346 346 345 344 343 342 342 341 338 336 336 335 332 332 330 328 327 334 353 356 354 2 347 302 259 259 242 227 212 206 199 188 187 177 175 183 183 186 191 169 176 217 260 279 49 289 303 359 284 316 327 25 51 14 15 50 14 2 7 42 116 105 126 134 138 157 188 188 156 165 174 156 167 153 138 135 136 143 152 154
345 344 344 344 342 341 340 341 344 346 344 342 342 341 341 341 337 335 334 334 333 332 330 328 330 341 5 358 359 8 320 273 230 92 87 197 195 198 195 189 187 180 181 189 186 186 186 166 178 224 260 278 113 262 302 36 311 316 316 4 27 351 355 44 15 342 161 232 125 118 149 144 144 160 176 171 162 186 196 179 186 166 147 145 147 153 157 157
342 342 342 341 340 339 338 339 343 346 343 341 340 340 343 341 337 333 331 334 335 336 333 327 337 1 18 4 17 11 284 248 102 64 28 188 185 189 191 189 183 178 183 189 178 180 176 169 191 226 250 292 82 246 348 32 305 290 279 351 355 336 338 2 356 310 184 204 187 165 156 132 141 169 184 170 171 206 195 186 193 173 154 153 155 158 160 161
341 341 340 339 339 337 336 337 342 345 342 340 339 340 342 341 337 332 331 335 336 340 338 332 354 28 30 22 44 339 264 269 56 12 345 184 181 183 188 185 175 174 185 184 175 181 175 178 204 221 246 288 13 5 3 360 301 284 302 352 342 332 318 324 327 219 193 207 199 183 139 138 152 170 187 178 177 197 170 184 191 170 157 155 157 161 164 163
340 340 338 338 336 335 334 336 341 343 341 340 340 341 342 341 336 331 332 335 333 338 338 341 27 51 44 44 45 251 246 11 37 349 341 177 176 178 182 175 169 175 188 185 179 187 181 186 205 258 302 303 4 356 351 332 275 267 315 339 334 324 306 307 305 230 209 220 196 164 156 168 171 157 179 188 174 136 151 174 174 156 154 158 163 164 165 163
338 336 336 335 334 333 333 336 341 340 339 338 339 341 340 339 334 329 331 332 333 334 337 1 61 58 52 53 272 237 219 29 16 337 336 166 170 172 171 167 172 180 190 190 184 190 190 194 201 272 306 9 350 334 344 323 249 243 312 322 321 314 310 307 295 252 223 222 179 173 175 178 167 131 168 184 167 140 149 160 154 150 156 168 172 166 166 167
336 334 334 334 333 332 333 337 340 339 338 337 339 339 338 338 332 324 327 331 331 329 342 32 74 62 52 334 273 236 153 16 351 332 145 160 165 166 163 165 178 184 189 191 190 194 197 210 209 312 312 334 327 321 332 318 339 342 313 312 312 310 320 321 302 239 210 198 179 181 172 164 143 126 165 163 156 151 152 155 152 155 163 173 177 171 171 171
336 334 333 333 332 331 334 337 338 338 337 336 338 337 337 336 328 321 326 330 330 329 357 62 82 69 19 279 257 223 66 12 349 101 149 158 158 162 166 171 177 184 189 190 196 198 198 265 334 311 297 301 304 316 317 309 331 320 306 304 301 306 333 342 352 162 180 179 188 185 157 157 149 153 186 147 150 153 154 157 156 162 168 173 177 176 178 177
336 334 332 332 331 333 336 336 337 338 335 335 337 335 335 333 322 318 322 329 335 334 39 92 97 77 310 272 250 208 44 12 19 135 154 156 156 163 171 173 175 184 187 186 199 205 210 334 343 290 277 322 310 311 305 304 311 304 302 304 291 247 48 17 83 134 169 168 187 195 150 156 167 180 138 138 151 157 155 158 163 170 169 171 176 176 181 184
335 333 332 331 332 335 336 335 336 336 335 335 336 333 332 329 315 312 319 330 344 3 82 108 103 64 296 257 250 13 26 17 104 140 152 154 156 162 164 167 173 185 188 193 200 208 239 287 308 288 313 333 312 312 314 309 303 295 292 299 244 152 114 43 95 153 183 153 173 190 151 168 189 172 123 139 155 159 158 161 168 174 169 169 175 176 182 187
333 332 331 330 332 335 334 334 335 336 336 335 335 331 328 324 305 307 319 327 359 54 86 105 94 37 277 242 82 22 9 43 128 141 148 152 149 142 147 158 163 170 180 195 187 207 253 269 286 292 308 306 305 316 305 296 289 286 273 278 226 163 125 67 113 167 161 126 170 184 113 168 180 157 136 148 158 161 163 167 171 174 173 173 175 178 180 185
333 331 330 330 331 334 333 332 335 336 335 336 334 329 326 318 283 303 312 328 29 91 85 70 76 287 265 133 71 14 33 105 138 145 151 155 145 135 141 151 161 167 162 123 105 155 249 267 271 276 280 278 294 298 289 281 272 284 258 243 244 152 108 98 137 175 142 130 181 201 342 127 150 146 147 155 162 168 168 169 174 174 177 179 177 181 179 183
333 331 330 330 330 331 332 332 334 335 336 337 334 329 327 301 265 314 306 339 107 115 65 48 51 267 251 143 89 48 99 126 148 151 156 159 152 149 156 161 169 179 195 197 149 85 273 279 260 268 285 268 274 284 286 274 239 278 267 207 308 37 115 118 137 191 41 132 185 223 330 104 135 143 149 161 170 178 176 169 175 177 179 183 181 185 180 181
329 329 327 328 329 329 330 332 333 335 337 337 334 331 336 121 45 329 314 55 155 110 62 343 241 266 265 126 109 121 140 142 147 153 161 167 164 155 157 162 169 180 198 213 230 253 257 271 265 277 295 276 269 288 294 254 186 170 329 8 10 352 76 121 148 166 64 136 186 223 288 55 127 145 150 168 178 184 186 172 175 182 182 184 183 186 184 182
327 328 326 326 328 328 330 331 332 335 337 338 337 335 29 112 123 69 22 156 166 106 267 290 278 263 272 107 137 165 150 133 142 157 160 170 167 146 150 161 171 177 186 203 219 240 236 242 258 252 255 263 278 295 280 239 161 60 348 351 2 341 335 57 129 139 149 204 206 213 244 15 121 148 156 173 185 188 192 180 178 184 185 185 183 188 190 186
327 326 325 326 327 328 329 331 332 334 336 339 343 344 106 165 146 70 142 170 181 214 238 266 260 251 186 146 161 131 124 131 146 158 157 160 161 153 159 165 166 170 182 201 204 213 210 206 243 254 239 239 254 276 275 357 2 346 347 340 334 329 320 355 38 46 279 263 242 210 240 259 143 157 163 175 189 194 193 186 182 183 186 186 183 191 195 190
329 326 325 325 327 328 329 331 330 331 335 340 356 3 25 185 178 204 212 199 214 241 232 173 207 280 113 135 117 92 111 131 139 150 155 158 161 166 170 165 170 178 187 190 182 190 201 200 219 241 242 221 187 313 324 352 340 329 335 320 310 315 311 336 3 17 340 291 256 228 277 266 168 169 170 176 189 200 197 187 185 183 186 188 187 193 194 194
328 325 325 325 326 328 328 328 326 329 331 333 353 309 242 226 216 185 193 211 233 276 321 177 218 291 106 116 102 109 127 137 145 153 156 159 163 167 171 172 176 190 205 192 167 179 205 223 220 231 240 71 23 326 321 322 315 311 311 301 299 295 291 334 7 34 343 305 299 347 302 284 183 177 176 178 187 200 203 192 188 187 188 190 192 194 192 195
325 323 324 323 326 327 326 325 324 324 323 326 269 261 282 328 300 71 181 215 214 248 262 235 261 280 260 86 117 137 148 155 147 146 153 165 173 172 168 178 186 192 205 199 160 157 200 236 231 246 327 10 312 306 307 300 299 299 294 293 288 278 298 356 16 31 343 312 345 6 303 276 170 177 174 180 190 199 205 199 194 191 192 193 194 196 191 192
324 324 323 322 324 324 324 323 320 319 314 238 237 254 311 7 360 5 325 249 173 191 235 222 250 266 249 243 195 186 199 164 142 143 156 174 189 193 171 184 203 190 183 193 186 167 206 236 220 136 329 281 281 289 289 286 288 285 279 277 273 301 328 126 132 93 311 309 330 334 317 6 141 173 175 186 197 200 203 203 202 196 195 197 196 197 193 189
326 326 323 322 322 321 322 321 319 318 277 204 251 253 306 6 324 322 289 277 151 157 200 204 222 221 192 202 186 198 207 170 154 153 164 183 195 204 184 189 209 192 178 196 211 212 209 219 163 116 240 269 276 272 272 274 266 262 265 267 272 342 324 251 126 328 303 296 310 310 302 149 138 173 180 194 203 198 195 199 207 204 200 201 198 196 195 192
326 325 323 320 318 318 322 321 315 301 215 248 265 249 268 312 299 291 269 279 168 144 169 186 225 220 179 146 167 190 201 175 172 157 165 189 180 177 198 198 206 199 195 205 217 241 232 108 89 126 189 249 271 264 262 269 256 248 257 274 296 323 321 323 336 316 297 240 248 298 290 174 160 184 175 181 197 200 195 195 203 207 206 205 200 197 195 196
325 324 323 319 315 317 325 319 287 224 256 269 254 228 248 302 293 266 259 259 173 135 153 175 210 208 157 133 168 191 196 174 179 155 165 191 180 164 192 194 217 210 197 204 216 244 243 140 151 219 227 249 271 269 265 286 274 244 229 324 328 325 319 313 310 306 284 210 158 320 310 171 155 176 164 156 182 202 199 199 204 203 206 206 202 200 196 198
324 322 321 317 314 317 328 319 189 228 278 248 198 197 258 310 279 220 251 249 175 139 155 178 183 163 160 163 167 186 198 173 147 148 163 190 194 197 198 174 224 233 192 197 220 245 241 191 201 245 263 262 267 263 243 273 268 234 81 22 328 316 307 302 305 294 283 311 39 308 310 316 142 146 151 161 181 198 197 205 208 201 204 206 205 204 198 197
323 320 318 315 314 316 322 318 237 264 264 159 160 214 290 309 213 187 244 230 170 148 156 160 146 153 160 164 168 193 180 134 131 157 169 188 189 216 230 181 196 235 185 200 227 221 219 219 221 241 254 252 256 250 163 252 272 300 49 346 309 306 302 304 298 274 299 327 268 224 302 300 266 114 138 174 189 198 200 206 209 204 203 204 205 206 201 199
321 318 316 310 307 301 276 277 287 267 277 127 181 264 307 265 185 197 252 207 136 146 161 123 100 152 146 159 182 212 114 132 159 167 169 189 193 217 232 202 209 210 179 212 227 135 180 224 225 231 239 236 249 280 31 271 271 303 352 318 303 296 293 297 283 266 330 310 261 178 337 294 296 107 139 188 206 212 210 208 207 205 205 203 204 205 203 200
323 319 315 307 302 290 255 253 256 251 250 185 231 307 301 190 188 237 258 214 133 168 156 125 144 168 155 160 187 189 133 165 183 142 159 184 207 247 265 208 224 208 176 223 245 163 153 232 244 246 243 237 260 287 276 269 267 299 316 300 281 265 266 274 273 273 294 281 279 41 355 302 324 113 152 186 216 228 212 206 203 200 202 203 202 202 201 198
324 317 311 304 300 281 240 239 241 234 206 206 303 327 189 182 218 231 215 164 158 152 129 157 164 160 162 168 180 182 166 156 112 143 165 177 193 228 291 149 236 231 190 218 247 263 266 255 260 260 255 266 290 288 274 264 269 291 298 287 266 238 228 247 265 287 278 259 264 21 328 301 302 112 129 137 86 15 99 180 189 190 194 199 201 200 197 194
319 311 301 284 255 210 216 230 229 212 195 235 329 215 196 201 245 237 179 134 164 145 155 176 159 159 174 179 175 176 177 148 142 163 169 173 188 202 203 188 210 222 210 214 228 236 239 235 232 232 238 256 271 272 263 248 253 273 275 276 270 232 217 238 226 229 261 255 163 53 308 284 278 52 36 49 87 76 45 99 168 182 189 193 197 198 195 193
312 300 277 249 224 209 212 194 162 182 185 302 269 213 224 214 222 236 118 155 180 158 168 168 161 173 181 185 173 168 177 157 161 179 178 182 191 192 205 203 184 202 218 214 202 206 218 219 219 219 218 232 252 256 233 217 225 243 244 250 260 240 223 239 224 217 256 259 87 19 301 267 264 38 17 34 79 99 71 62 128 171 183 188 191 194 193 193
306 286 259 240 226 214 212 204 187 190 216 289 240 227 250 226 207 99 132 174 160 144 163 159 164 176 177 185 171 164 178 154 164 189 189 192 199 195 207 217 218 238 247 198 195 196 196 195 204 216 209 211 234 245 211 188 191 209 231 243 251 257 248 244 237 236 254 240 137 71 294 260 214 103 56 55 69 76 85 96 104 144 175 183 186 190 189 191
299 269 248 237 230 218 213 214 218 228 257 252 231 229 242 221 126 108 157 156 114 132 155 156 161 170 180 190 162 164 187 155 164 190 184 193 215 204 203 207 214 244 265 222 227 215 208 190 190 201 189 184 210 237 263 291 226 205 234 275 268 275 267 268 272 253 259 248 158 148 250 266 232 71 63 75 87 96 98 107 121 135 160 173 181 187 189 190
350 131 170 209 236 222 213 213 212 217 233 237 234 233 235 176 118 152 149 122 132 146 148 156 165 171 183 189 162 177 221 193 173 193 190 197 216 207 207 199 196 220 244 230 203 203 248 269 160 177 163 170 199 219 256 281 256 201 220 253 262 294 277 284 304 301 306 289 219 179 218 269 9 38 58 117 127 128 128 125 139 150 151 161 176 184 190 193
102 97 105 111 25 220 214 208 194 199 237 241 233 218 223 56 78 113 110 123 155 149 148 164 177 180 178 177 172 186 223 226 180 192 198 206 221 216 218 200 186 204 225 232 169 174 239 176 141 172 194 199 223 220 216 248 258 181 228 234 258 358 294 282 265 275 287 267 218 179 218 201 151 110 93 122 145 140 147 142 135 145 153 163 176 183 190 195
130 121 110 106 45 292 217 199 189 210 244 240 239 258 357 17 42 60 96 118 139 153 162 166 178 194 179 170 181 182 191 196 185 196 195 195 217 215 214 210 189 199 214 236 256 116 259 204 149 183 200 181 227 251 224 245 268 255 254 303 60 252 267 276 260 238 246 242 201 155 216 268 160 126 100 116 134 122 121 121 123 143 161 172 178 179 188 196
191 178 115 60 354 280 186 178 185 219 237 238 248 267 290 275 63 46 107 127 154 183 190 169 171 209 191 172 178 173 179 183 175 195 204 181 186 193 203 206 192 201 213 226 235 87 291 245 160 183 203 149 169 232 223 218 231 253 292 342 296 248 236 236 252 254 246 244 207 151 125 327 82 97 108 109 87 96 102 107 121 137 154 169 173 171 181 193
231 203 117 20 358 155 155 164 192 229 231 238 239 224 261 278 287 298 256 246 223 200 206 176 157 209 211 180 169 167 183 193 171 190 216 188 167 168 194 201 189 198 206 212 225 209 245 257 169 168 198 162 174 217 221 197 196 229 265 261 242 264 274 236 239 258 262 262 220 165 144 153 57 38 81 93 64 80 91 89 85 91 120 143 151 160 171 185
244 219 87 24 53 127 140 178 222 232 225 244 272 280 306 299 285 275 241 234 230 212 222 197 161 189 203 183 172 173 193 211 197 200 207 179 180 169 179 196 188 189 195 201 218 216 208 257 200 158 182 210 199 204 221 208 189 204 225 225 215 209 232 246 245 253 277 284 238 180 195 169 60 3 310 92 60 52 67 70 69 65 84 114 126 147 160 176
245 242 101 90 91 108 173 232 222 228 233 248 272 271 283 308 301 273 217 214 227 234 255 254 199 189 185 187 193 182 194 215 215 220 205 185 219 192 166 193 187 172 182 196 208 210 208 252 253 172 184 200 182 167 297 296 262 241 227 222 222 206 199 236 235 215 240 271 268 234 218 156 52 342 243 103 73 59 65 62 62 61 65 89 120 141 149 170
247 348 115 140 97 41 250 235 205 232 251 263 295 285 282 302 291 268 202 197 219 232 234 243 238 206 187 196 199 186 198 211 208 219 215 193 228 103 133 180 182 168 176 194 199 201 214 262 263 218 215 227 98 67 308 269 254 264 260 240 237 218 209 232 237 206 204 233 249 257 227 129 53 310 244 106 90 76 68 59 61 67 68 76 93 110 121 150
231 53 120 165 175 318 261 237 191 214 239 286 308 281 252 248 256 251 176 186 204 214 211 216 224 215 204 203 195 194 204 207 208 219 226 217 231 77 121 171 181 177 185 191 181 177 186 248 252 231 228 243 102 107 121 187 213 229 227 224 238 227 222 236 253 261 237 221 217 230 223 145 102 246 133 108 104 86 71 61 60 65 70 75 74 71 85 117
91 78 134 179 204 270 273 270 255 239 281 303 286 246 211 226 252 248 192 183 189 196 203 204 210 218 213 201 201 203 200 201 207 211 245 249 167 92 142 188 188 189 195 192 170 167 179 219 229 226 211 193 169 155 138 158 206 211 177 206 237 226 218 226 236 240 240 241 250 253 231 152 109 125 146 128 110 87 73 62 57 57 60 68 71 71 80 103
163 144 135 169 196 238 271 319 312 301 332 313 288 155 173 195 223 253 229 143 171 197 199 185 196 204 186 190 202 194 192 231 236 187 229 245 138 106 196 199 198 200 195 30 128 169 191 216 202 225 223 195 191 191 149 178 229 200 161 215 227 224 214 206 220 226 221 229 255 264 254 124 102 165 181 142 114 90 76 62 54 51 52 56 63 65 67 76
261 190 146 166 187 227 248 261 281 283 326 325 344 36 14 136 138 185 213 129 126 168 159 131 161 171 160 171 175 162 176 217 248 156 180 203 118 89 126 186 198 195 120 64 208 189 207 237 211 232 254 227 212 246 4 288 243 215 236 232 220 241 235 221 237 238 220 227 228 265 293 85 141 208 190 138 110 90 72 56 50 47 47 53 63 67 68 70
289 258 82 171 186 215 214 201 260 287 329 335 342 5 3 78 118 142 171 106 102 131 116 110 146 166 156 158 154 140 156 164 133 126 114 76 91 85 96 158 191 181 96 170 214 208 235 236 207 221 239 232 219 224 235 247 227 223 254 247 223 240 233 228 235 178 154 250 237 204 228 198 188 200 164 117 97 83 66 52 49 47 44 46 55 76 89 85
306 325 31 344 283 241 199 12 334 316 333 338 332 359 21 55 78 80 72 79 104 288 47 113 117 133 142 145 144 135 140 140 124 113 108 105 106 105 110 134 171 178 182 200 202 215 251 235 204 229 230 225 224 227 231 234 222 234 269 282 290 261 242 241 238 198 202 240 265 141 200 177 161 164 115 93 80 76 68 59 55 50 51 48 43 55 61 62
308 358 88 284 296 352 360 331 314 310 337 350 355 14 24 45 61 59 29 37 86 44 28 108 103 100 129 137 133 125 114 112 120 106 64 86 100 105 114 116 134 163 186 196 186 213 272 260 263 259 240 225 226 231 234 232 223 228 277 304 305 273 261 261 249 228 223 227 201 258 171 130 113 107 99 87 74 74 73 72 62 48 50 47 37 38 37 38
339 6 25 261 256 327 327 309 300 294 344 360 10 22 23 38 54 57 31 20 60 64 56 91 95 88 100 101 96 92 61 37 82 80 18 29 79 69 79 81 99 149 169 184 179 193 239 220 225 261 249 217 210 231 244 240 237 238 256 333 321 283 267 312 267 245 237 221 206 219 176 123 115 121 107 96 86 82 75 70 60 43 41 41 34 33 29 25
335 327 326 291 243 317 313 314 302 287 34 35 13 15 25 35 34 44 52 38 41 52 45 58 80 86 89 86 77 67 42 17 36 40 360 4 32 24 31 22 1 120 156 169 178 190 222 228 202 249 256 220 200 233 252 246 244 247 245 26 339 294 292 40 17 13 294 229 180 184 186 125 115 125 116 102 90 81 68 60 57 44 36 35 29 26 22 17
335 284 294 292 245 76 309 255 265 277 35 37 13 360 8 22 13 4 65 61 43 37 22 5 13 69 86 74 54 27 358 337 340 345 334 341 352 339 350 351 332 329 177 208 222 200 243 264 233 251 274 239 195 230 262 253 240 243 234 63 342 297 83 78 66 60 15 309 156 153 148 106 118 149 132 107 87 76 67 55 49 44 36 32 30 25 17 10